Location: Ehrke Reservoir
(40.0279°N, 99.6641°W)
Time: 19:48:33
(UTC+00:00)

Cosmos 2297 Rocket - Pass Details

Date: 20 January 2020
Orbit: 838 x 845 km, 71.0° (Epoch: 27 February)

Event Time Altitude Azimuth Distance (km) Brightness Sun altitude
Rises 01:37:52 0° 210° (SSW) 3,377 5.9 -21.9°
Reaches altitude 10° 01:40:19 10° 213° (SSW) 2,447 5.1 -22.4°
Maximum altitude 01:45:53 65° 295° (WNW) 921 2.5 -23.5°
Enters shadow 01:49:35 22° 13° (NNE) 1,768 3.7 -24.2°
